Torna al catalogo

SCOUT G-1 R/B

AttivoPO
NORAD 22699·ROCKET BODY·🇺🇸 United States

Lanciato Jun 25, 1993 da Vandenberg Space Force Base

Loading…

Prossimi Passaggi (prossime 24 ore)

TLE

AggiornatoSource: Space-Track

Epoca: Sep 14, 2026, 12:41 UTC

1 22699U 93041B   26257.52889834  .00000251  00000-0  94669-4 0  9990
2 22699  89.5013  52.5050 0084953 193.0729 166.8265 14.26783775726013

Traccia SCOUT G-1 R/B in tempo reale con AllMySat

Download on the App Store